FW9031 Weather Reports


Display with metric or nautical units.
time (UTC)temp
F
wind
direction
speed
MPH
gust
MPH
rain 1hr
in
rain 24hr
in
rain mn
in
humidity
%
barometer
mb
20260505183056 71 178 5.0 16.0 0.00 0.00 0.00 56 1005.4
20260505181555 71 178 5.0 17.0 0.00 0.00 0.00 55 1005.7
20260505174558 71 178 6.0 15.0 0.00 0.02 0.00 54 1005.9
20260505173053 71 178 4.0 15.0 0.00 0.02 0.00 56 1006.0
20260505171552 71 178 4.0 12.0 0.00 0.02 0.00 57 1006.4
20260505170052 70 178 4.0 11.0 0.00 0.02 0.00 55 1006.8
20260505164607 69 178 5.0 12.0 0.00 0.02 0.00 57 1007.1
20260505163053 67 178 4.0 11.0 0.00 0.02 0.00 60 1007.2
20260505161551 66 178 5.0 12.0 0.00 0.02 0.00 61 1007.4
20260505153053 67 178 3.0 12.0 0.00 0.02 0.00 58 1008.2
20260505151550 68 178 5.0 11.0 0.00 0.02 0.00 58 1008.0
20260505140112 65 178 4.0 12.0 0.00 0.02 0.00 60 1008.0
20260505124559 61 178 3.0 9.0 0.00 0.02 0.00 63 1008.4
20260505123053 61 178 3.0 10.0 0.00 0.02 0.00 64 1008.5
20260505121554 59 178 4.0 9.0 0.00 0.02 0.00 66 1008.5
20260505120110 59 178 3.0 10.0 0.00 0.02 0.00 69 1008.7
20260505114553 57 178 2.0 9.0 0.00 0.02 0.00 72 1008.8
20260505113056 54 178 1.0 5.0 0.00 0.02 0.00 76 1008.6
20260505111553 52 178 1.0 5.0 0.00 0.02 0.00 80 1008.8
20260505110106 50 178 0.0 3.0 0.00 0.02 0.00 82 1008.8
20260505101551 48 0 0.0 3.0 0.00 0.02 0.00 86 1008.6
20260505100056 46 0 0.0 0.0 0.00 0.02 0.00 88 1008.6
20260505094600 46 0 0.0 1.0 0.00 0.02 0.00 88 1008.7
20260505093053 46 0 0.0 0.0 0.00 0.02 0.00 88 1008.5
20260505091606 46 0 0.0 0.0 0.00 0.02 0.00 88 1008.6
20260505090054 46 0 0.0 0.0 0.00 0.02 0.00 87 1008.6
20260505084553 46 0 0.0 0.0 0.00 0.02 0.00 86 1008.8
20260505083053 46 0 0.0 0.0 0.00 0.02 0.00 85 1008.8
20260505081553 46 0 0.0 1.0 0.00 0.02 0.00 86 1008.7
20260505080100 46 0 0.0 1.0 0.00 0.02 0.00 86 1008.8
20260505074554 47 0 0.0 0.0 0.00 0.02 0.00 84 1008.8
20260505073055 47 0 0.0 0.0 0.00 0.02 0.00 83 1008.8
20260505071555 47 0 0.0 0.0 0.00 0.02 0.00 83 1008.8
20260505070057 48 0 0.0 0.0 0.00 0.02 0.00 82 1008.7
20260505064554 48 0 0.0 1.0 0.00 0.02 0.00 81 1008.6
20260505063111 48 0 0.0 1.0 0.00 0.02 0.00 81 1008.6
20260505061556 47 0 0.0 0.0 0.00 0.02 0.00 81 1008.6
20260505060103 48 0 0.0 0.0 0.00 0.02 0.00 80 1008.6
20260505054607 48 0 0.0 0.0 0.00 0.02 0.00 81 1008.7
20260505053100 48 0 0.0 0.0 0.00 0.02 0.00 81 1008.7
20260505051551 48 0 0.0 0.0 0.00 0.02 0.00 82 1008.5
20260505041557 48 0 0.0 1.0 0.00 0.02 0.00 83 1008.1
20260505040056 48 0 0.0 0.0 0.00 0.02 0.00 83 1008.0
20260505034556 48 0 0.0 0.0 0.00 0.02 0.02 82 1008.0
20260505033052 48 0 0.0 0.0 0.00 0.02 0.02 81 1007.9
20260505031603 49 0 0.0 0.0 0.00 0.02 0.02 80 1007.9
20260505030109 50 0 0.0 1.0 0.00 0.02 0.02 78 1007.9
20260505024605 51 178 0.0 5.0 0.00 0.02 0.02 76 1007.9
20260505023056 51 0 1.0 3.0 0.00 0.02 0.02 75 1008.0
20260505021558 52 178 2.0 6.0 0.00 0.02 0.02 74 1007.9
20260505020054 53 0 0.0 2.0 0.00 0.02 0.02 72 1007.9
20260505014609 54 178 1.0 2.0 0.00 0.02 0.02 72 1007.8
20260505013053 54 0 0.0 0.0 0.00 0.02 0.02 70 1007.6
20260505011604 55 0 0.0 0.0 0.00 0.02 0.02 69 1007.7
20260505010053 55 0 0.0 0.0 0.00 0.02 0.02 68 1007.5
20260505004553 56 0 0.0 2.0 0.00 0.02 0.02 68 1007.4
20260505003053 56 0 0.0 0.0 0.00 0.02 0.02 67 1007.0
20260505001554 57 0 0.0 0.0 0.00 0.02 0.02 64 1006.8
20260505000107 57 0 0.0 2.0 0.00 0.02 0.02 64 1006.6
20260504234555 59 0 0.0 0.0 0.00 0.02 0.02 59 1006.4
20260504233107 60 0 0.0 0.0 0.00 0.02 0.02 57 1006.3
20260504231552 60 0 0.0 0.0 0.00 0.02 0.02 56 1006.1
20260504230053 61 0 0.0 0.0 0.00 0.02 0.02 55 1006.0
20260504224558 62 0 0.0 0.0 0.00 0.02 0.02 53 1005.8
20260504223134 63 0 0.0 1.0 0.00 0.02 0.02 50 1005.8
20260504221554 64 0 0.0 1.0 0.00 0.02 0.02 51 1005.9
20260504220058 64 0 0.0 1.0 0.00 0.02 0.02 50 1005.9
20260504214557 64 178 0.0 2.0 0.00 0.02 0.02 50 1006.0
20260504213102 64 0 1.0 3.0 0.00 0.02 0.02 51 1006.0
20260504211554 64 178 0.0 6.0 0.00 0.02 0.02 50 1005.9
20260504210059 65 178 1.0 7.0 0.00 0.02 0.02 50 1005.6
20260504204554 65 178 1.0 9.0 0.00 0.02 0.02 49 1005.7
20260504203110 66 178 2.0 8.0 0.00 0.02 0.02 47 1005.7
20260504201558 65 178 2.0 7.0 0.00 0.02 0.02 50 1005.7
20260504194552 65 178 1.0 6.0 0.00 0.02 0.02 52 1005.7
20260504193057 64 178 1.0 5.0 0.00 0.02 0.02 55 1005.9
20260504191600 62 178 0.0 5.0 0.00 0.02 0.02 62 1005.9
20260504190055 59 178 0.0 7.0 0.00 0.02 0.02 69 1006.1
20260504184557 58 178 0.0 2.0 0.00 0.02 0.02 70 1006.2